Regional Weather Roundup
Issued by NWS

Home | Current Version | Previous Version | Graphics & Text | Print | Product List | Glossary On
Versions: 1 2 3 4 5 6 7 8 9 10 11 12 13 14 15 16 17 18 19 20 21 22 23 24 25 26 27 28 29 30 31 32 33 34 35 36 37 38 39 40 41 42 43 44 45 46 47 48 49 50
000
ASUS43 KOAX 301910
RWRNE

WEATHER ROUNDUP FOR NEBRASKA
NATIONAL WEATHER SERVICE OMAHA NE
200 PM CDT SAT MAY 30 2015

NOTES: SATELLITE DATA IS BEING USED TO AUGMENT CLOUD COVER ABOVE
       12000 FEET.
       "FAIR" INDICATES FEW OR NO CLOUDS BELOW 12,000 FEET WITH NO
       SIGNIFICANT WEATHER AND/OR OBSTRUCTIONS TO VISIBILITY.

  * THESE STATIONS DO NOT REPORT WEATHER SUCH AS RAIN...SNOW OR FOG.

NEZ001>004-019>022-054>056-302000-
NEBRASKA PANHANDLE

CITY           SKY/WX    TMP DP  RH WIND       PRES   REMARKS
SCOTTSBLUFF    MOSUNNY   63  50  62 SE16      30.24F
ALLIANCE       SUNNY     59  47  64 SE9G20    30.26S
CHADRON        PTSUNNY   61  46  57 S6        30.24F
KIMBALL          N/A    N/A N/A N/A MISG        N/A
SIDNEY         MOSUNNY   60  47  61 VRB7      30.28F
$$

NEZ057>060-069>072-079>082-302000-
SOUTHWEST NEBRASKA

CITY           SKY/WX    TMP DP  RH WIND       PRES   REMARKS
NORTH PLATTE   SUNNY     60  37  42 MISG      30.28F
IMPERIAL       SUNNY     60  40  47 NE9       30.28F
LEXINGTON      SUNNY     61  38  41 NE8       30.26F
MCCOOK         SUNNY     62  36  37 N9        30.26F
OGALLALA       SUNNY     58  40  50 E6        30.28F
$$

NEZ005>010-023>029-035>040-094-302000-
NORTH CENTRAL NEBRASKA

CITY           SKY/WX    TMP DP  RH WIND       PRES   REMARKS
VALENTINE      SUNNY     57  33  40 E8        30.29F
AINSWORTH      SUNNY     57  37  47 N6        30.29F
BROKEN BOW     SUNNY     62  32  32 N13G18    30.26F
O`NEILL        SUNNY     58  44  59 N9        30.28F
ORD            SUNNY     61  37  41 NE9       30.25F
THEDFORD       SUNNY     58  33  39 N9        30.29F
$$

NEZ041-046>049-061>064-073>077-083>087-302000-
SOUTH CENTRAL NEBRASKA

CITY           SKY/WX    TMP DP  RH WIND       PRES   REMARKS
GRAND ISLAND   SUNNY     62  41  46 NE16G23   30.25F
AURORA         SUNNY     64  39  39 N14G20    30.23F
HASTINGS       SUNNY     63  45  51 NE16G23   30.23F
HEBRON         CLOUDY    63  44  51 NE12      30.21F
HOLDREGE       SUNNY     60  41  49 N10G17    30.25F
KEARNEY *      MOSUNNY   61  43  51 NE7G16    30.25F
YORK           SUNNY     63  45  51 N17G26    30.22S
$$

NEZ011>018-030>034-042>045-302000-
NORTHEAST NEBRASKA

CITY           SKY/WX    TMP DP  RH WIND       PRES   REMARKS
NORFOLK        SUNNY     64  41  42 N14G25    30.23F
ALBION         SUNNY     60  41  49 N12G17    30.25F
BLAIR          CLOUDY    62  45  55 NE14G20   30.19F
COLUMBUS *     SUNNY     64  39  39 NE14G24   30.23F
FREMONT        SUNNY     64  42  45 N15G23    30.21S
TEKAMAH        SUNNY     67  44  43 N20G29    30.19F
WAYNE          SUNNY     61  43  52 N16       30.24S
$$

NEZ050>053-065>068-078-088>093-302000-
SOUTHEAST NEBRASKA

CITY           SKY/WX    TMP DP  RH WIND       PRES   REMARKS
LINCOLN        CLOUDY    65  46  50 N17G24    30.20F
OMAHA EPPLEY   PTSUNNY   64  46  52 N16       30.18F
BEATRICE       CLOUDY    61  48  60 N15       30.20S
FALLS CITY     CLOUDY    58  51  78 N12       30.16S
NEBRASKA CITY  CLOUDY    59  48  67 N10       30.18S
PLATTSMOUTH    CLOUDY    61  46  58 N9G17     30.18S
$$

NEZ044-045-051>053-067-302000-
OMAHA AREA

CITY           SKY/WX    TMP DP  RH WIND       PRES   REMARKS
OMAHA EPPLEY   PTSUNNY   64  46  52 N16       30.18F
BLAIR          CLOUDY    62  45  55 NE14G20   30.19F
FREMONT        SUNNY     64  42  45 N15G23    30.21S
MILLARD        CLOUDY    62  46  55 N10       30.19F
OFFUTT AFB     PTSUNNY   63  47  56 N14       30.17F
PLATTSMOUTH    CLOUDY    61  46  58 N9G17     30.18S
WAHOO          CLOUDY    64  43  45 N13G21    30.20F
$$



USA.gov is the U.S. government's official web portal to all federal, state and local government web resources and services.